Location: downtown San Diego
(32.7310°N, 117.1990°W)
Time: 08:06:44
(UTC-07:00)

Cosmos 1315 Rocket - Pass Details

Date: 14 June 2018
Orbit: 530 x 569 km, 81.2° (Epoch: 17 September)

Event Time Altitude Azimuth Distance (km) Brightness Sun altitude
Exits shadow 22:28:48 67° 319° (NW) 597 3.1 -24.7°
Drops below altitude 10° 22:32:29 10° 3° (N) 1,834 6.1 -25.2°
Sets 22:34:41 0° 6° (N) 2,739 7.1 -25.4°
